Regional Weather Roundup
Issued by NWS Boston, MA

Home | Current Version | Previous Version | Text Only | Print | Product List | Glossary On
Versions: 1 2 3 4 5 6 7 8 9 10 11 12 13 14 15 16 17 18 19 20 21 22 23 24 25 26 27 28
000
ASUS41 KBOX 250510
RWRBOX

REGIONAL WEATHER ROUNDUP
NATIONAL WEATHER SERVICE TAUNTON MA
100 AM EDT MON JUL 25 2016

NOTE:  "FAIR" INDICATES FEW OR NO CLOUDS BELOW 12,000 FEET WITH NO
SIGNIFICANT WEATHER AND/OR OBSTRUCTIONS TO VISIBILITY.  THE FOLLOWING
OBSERVATION LOCATIONS DO NOT REPORT PRESENT WEATHER...PROVINCETOWN...
SMITHFIELD...BLOCK ISLAND...KEENE...AND OXFORD.

MAZALL-250600-
EASTERN MASSACHUSETTS

CITY           SKY/WX    TMP DP  RH WIND       PRES   REMARKS
BOSTON         PTCLDY    69  65  86 CALM      29.97S
BEVERLY        PTCLDY    62  62 100 CALM      29.96S
LAWRENCE         N/A     68  55  63 CALM      29.98F
BEDFORD        PTCLDY    60  55  83 CALM      29.96S
BLUE HILL        N/A     73  58  59 N6        29.98F
NORWOOD        PTCLDY    63  61  93 CALM      29.97S
MARSHFIELD     PTCLDY    68  66  94 W3        29.96S
PLYMOUTH       PTCLDY    66  62  87 CALM      29.97F
TAUNTON        FOG       61  60  97 CALM      29.96S VSB 3/4
NEW BEDFORD    CLEAR     71  65  81 W5        29.96S
$$

MAZALL-250600-
CAPE COD AND THE ISLANDS

CITY           SKY/WX    TMP DP  RH WIND       PRES   REMARKS
FALMOUTH       NOT AVBL
HYANNIS        PTCLDY    71  67  87 S3        29.95F
CHATHAM        PTCLDY    71  69  93 SW5       29.98S
PROVINCETOWN   PTCLDY    68  66  93 S3        29.97S
NANTUCKET      CLOUDY    69  67  93 SW8       29.98F
MARTHAS VNYRD  CLEAR     71  66  84 W5        29.97F
$$

MAZALL-250600-
CENTRAL AND WESTERN MASSACHUSETTS

CITY           SKY/WX    TMP DP  RH WIND       PRES   REMARKS
WORCESTER      MOCLDY    69  51  52 SW6       30.01F
FITCHBURG      MOCLDY    67  55  65 CALM      29.99S
ORANGE         PTCLDY    63  56  78 CALM      29.99F
SPRINGFIELD    PTCLDY    64  59  82 NE2       29.96F
WESTFIELD      MOCLDY    69  60  73 CALM      29.97F
NORTH ADAMS    MOCLDY    62  58  86 CALM      30.00F
PITTSFIELD     MOCLDY    65  58  78 CALM      30.01F
$$

RIZALL-250600-
RHODE ISLAND

CITY           SKY/WX    TMP DP  RH WIND       PRES   REMARKS
PROVIDENCE     CLEAR     74  64  71 W6        29.97F
NEWPORT        CLEAR     71  64  78 CALM      29.97F
BLOCK ISLAND   PTCLDY    70  67  90 W8        29.99F
SMITHFIELD     PTCLDY   N/A N/A N/A CALM      29.99S
WESTERLY       CLOUDY    72  64  76 CALM      29.98F
$$

CTZALL-250600-
CONNECTICUT

CITY           SKY/WX    TMP DP  RH WIND       PRES   REMARKS
BRADLEY INTL   MOCLDY    72  60  66 CALM      29.96F
HARTFORD       CLEAR     75  67  76 CALM      29.96F
BRIDGEPORT     CLEAR     76  70  82 S6        29.96F
DANBURY        CLEAR     70  65  84 CALM      29.99F
GROTON         CLEAR     74  67  78 CALM      29.97F
NEW HAVEN      CLEAR     70  67  90 CALM      29.97F
CHESTER        FAIR      73  70  88 VRB6      29.98F
MERIDEN        CLEAR     71  65  81 CALM      29.97F
WILLIMANTIC    NOT AVBL
OXFORD           N/A     70  61  73 CALM      30.00F
$$

MEZ002-015-021-024-NHZ003-005-008-011-012-014-VTZ005-008-250600-
NORTHERN NEW ENGLAND

CITY           SKY/WX    TMP DP  RH WIND       PRES   REMARKS
PORTLAND ME    MOCLDY    64  61  90 CALM      29.96F
BANGOR ME      PTCLDY    65  58  78 SW5       29.95S
CONCORD NH     CLOUDY    60  54  80 CALM      29.98F
MANCHESTER NH  CLOUDY    70  52  52 N5        29.96F
NASHUA NH      PTCLDY    66  57  72 W5        29.97F
PORTSMOUTH NH  MOCLDY    66  60  79 W5        29.95S
JAFFREY NH     PTCLDY    61  56  83 CALM      30.02F
KEENE NH       PTCLDY    61  58  90 CALM      30.01S
BURLINGTON VT  FAIR      63  55  75 E3        29.96F
MT. WASHINGTON MOCLDY    52  27  37 W16         N/A
$$

NYZ052-076-250600-
EASTERN NEW YORK

CITY           SKY/WX    TMP DP  RH WIND       PRES   REMARKS
ALBANY         CLOUDY    70  62  76 CALM      29.96F
NEW YORK CITY  MOCLDY    84  66  54 S9        29.95F
$$

ANZALL-250600-
MARINE OBSERVATIONS

STATION/POSITION TIME  TEMP    WIND        PRES    VSBY  WAVE
                       AIR SEA DIR/SP/G                  HT/PER
                 (UTC) (F)     (DEG/KT/KT) (MB)    (MI)  (FT/S)
BOSTON BUOY      0450   71 71  290/  4/  4 1014.4F         1/ 6
BUZZARDS BAY     0400   70     260/  9/ 10 1015.5R
NANTUCKET SOUND  0450   73 74  230/ 10/ 12 1014.7F         1
MASS BAY-STELLWA 0404   69 69  280/  2/  4 1014.5F  1 7/8  1/ 7
ISLE OF SHOALS   0400   74     310/  6/  6 1014.1F
S OF BLOCK IS    0425      71                N/A           3/ 6
$$

......................KEY.........................
  SKY/WX - SKY CONDITION/PRESENT WEATHER
  TMP    - TEMPERATURE IN FAHRENHEIT
  DWPT   - DEWPOINT IN FAHRENHEIT
  RH     - RELATIVE HUMIDITY IN PERCENT
  WIND   - DIRECTION AND SPEED IN MPH
  PRES   - MEAN SEA LEVEL PRESSURE IN INCHES OF HG
  WCI    - WIND CHILL INDEX
  VSB    - VISIBILITY IN MILES
  HX     - HEAT INDEX
  TC     - TEMPERATURE IN CELSIUS
  VRB    - VARIABLE WIND DIRECTION
  N/A    - NOT AVAILABLE




USA.gov is the U.S. government's official web portal to all federal, state and local government web resources and services.